Home   Weather   Fairfield   Past weeks
Flag for USA

Past Weather in Fairfield, Tennessee, USA — Yesterday and Last 2 Weeks

Now
48 °F

Sunny.


Feels Like: 47 °F
Forecast: 47 / 24 °F
Wind: 3 mph from West

Location: Nashville International Airport

Current Time: Dec 11, 2019 at 2:46:54 pm

Latest Report: Dec 11, 2019 at 1:53 pm


Visibility: 10 mi

Pressure: 30.54 "Hg

Humidity: 29%

Dew Point: 17 °F

Location of FairfieldLocation

Past Weather in Fairfield — Graph

°F

Fairfield Temperature Yesterday

Maximum temperature yesterday: 62 °F (at 12:53 am)
Minimum temperature yesterday: 31 °F (at 11:53 pm)
Average temperature yesterday: 40 °F

High & Low Weather Summary for the Past Weeks

 TemperatureHumidityPressure
High67 °F (Nov 27, 4:53 am)94% (Nov 30, 9:34 pm)30.59 "Hg (Nov 30, 9:34 pm)
Low25 °F (Dec 11, 5:53 am)25% (Dec 4, 1:53 pm)29.55 "Hg (Nov 30, 10:53 pm)
Average49 °F63%30.05 "Hg
* Reported Nov 26 12:53 pm — Dec 11 12:53 pm, Fairfield. Weather by CustomWeather, © 2019

Note: Actual official high and low records may vary slightly from our data, if they occured in-between our weather recording intervals... More about our weather records

Fairfield Weather History for the Previous 24 Hours

Scroll right to see more
 ConditionsComfort  
Time TempWeatherWind HumidityBarometerVisibility
12:53 pm
Wed, Dec 11
45 °FSunny.No wind33%30.55 "Hg10 mi
11:53 am43 °FSunny.3 mph38%30.57 "Hg10 mi
10:53 am41 °FSunny.7 mph41%30.59 "Hg10 mi
9:53 am36 °FSunny.6 mph52%30.58 "Hg10 mi
8:53 am32 °FSunny.6 mph69%30.56 "Hg10 mi
7:53 am28 °FPassing clouds.3 mph81%30.55 "Hg10 mi
6:53 am25 °FPassing clouds.3 mph85%30.53 "Hg10 mi
5:53 am25 °FSunny.5 mph85%30.50 "Hg10 mi
4:53 am26 °FClear.No wind77%30.47 "Hg10 mi
3:53 am28 °FClear.No wind69%30.47 "Hg10 mi
2:53 am28 °FClear.No wind69%30.48 "Hg10 mi
1:53 am31 °FClear.No wind61%30.47 "Hg10 mi
12:53 am31 °FPassing clouds.No wind64%30.45 "Hg10 mi
11:53 pm
Tue, Dec 10
31 °FPassing clouds.6 mph64%30.44 "Hg10 mi
10:53 pm32 °FPartly cloudy.5 mph59%30.44 "Hg10 mi
9:53 pm33 °FPassing clouds.3 mph52%30.43 "Hg10 mi
8:53 pm34 °FOvercast.5 mph61%30.41 "Hg10 mi
7:53 pm34 °FOvercast.6 mph59%30.39 "Hg10 mi
6:53 pm34 °FOvercast.6 mph56%30.39 "Hg10 mi
5:53 pm34 °FMostly cloudy.8 mph52%30.36 "Hg10 mi
4:53 pm35 °FMostly cloudy.6 mph52%30.36 "Hg10 mi
3:53 pm35 °FMostly cloudy.8 mph54%30.33 "Hg10 mi
2:53 pm36 °FCloudy.6 mph52%30.31 "Hg10 mi
Weather by CustomWeather, © 2019

See weather overview

Advertising